Zurück zum Katalog

NAXING 1

AktivWissenschaftSSO
NORAD 28221·PAYLOAD·🇨🇳 China

Gestartet Apr 18, 2004 von Xichang Satellite Launch Center

Loading…

Nächste Überflüge (nächste 24 Stunden)

TLE

AktuellSource: Space-Track

Epoche: Sep 14, 2026, 07:42 UTC

1 28221U 04012B   26257.32092309  .00001311  00000-0  94044-4 0  9993
2 28221  97.9990 288.4606 0011463 145.4338 214.7636 15.06180393220668

Verfolge NAXING 1 in Echtzeit mit AllMySat

Download on the App Store